CKS101 KMEM-KIAH

Flight info

Callsign CKS101
Flight time 1h 10m
Altitude 36000
Route PIEPE6 IBUFY SQS AEX HUDZY5
Aircraft B712/M-SDFGHRWY/C

Departure

Time 2026-05-04 17:20
Airport Memphis International Airport (KMEM)

Arrival

Time 2026-05-04 18:30
Airport George Bush Intercontinental Airport (KIAH)
Time Latitude Longitude Altitude Speed Heading
2026-05-04 16:58 35.06284 -89.98158 278 ft 0 kts 180°
2026-05-04 17:00 35.06285 -89.98158 278 ft 0 kts 180°
2026-05-04 17:04 35.06291 -89.98158 296 ft 1 kts 180°
2026-05-04 17:05 35.06315 -89.98157 271 ft 2 kts 180°
2026-05-04 17:05 35.06330 -89.98147 275 ft 2 kts 272°
2026-05-04 17:06 35.06330 -89.98160 275 ft 0 kts 272°
2026-05-04 17:07 35.06333 -89.98200 275 ft 11 kts 275°
2026-05-04 17:07 35.06347 -89.98275 275 ft 17 kts 299°
2026-05-04 17:07 35.06373 -89.98445 275 ft 15 kts 262°
2026-05-04 17:07 35.06313 -89.98525 278 ft 13 kts 180°
2026-05-04 17:08 35.06226 -89.98528 283 ft 12 kts 183°
2026-05-04 17:08 35.06101 -89.98531 288 ft 0 kts 177°
2026-05-04 17:13 35.06094 -89.98531 292 ft 3 kts 177°
2026-05-04 17:14 35.06019 -89.98277 295 ft 19 kts 94°
2026-05-04 17:14 35.06016 -89.98102 296 ft 22 kts 90°
2026-05-04 17:14 35.05996 -89.97731 301 ft 24 kts 104°
2026-05-04 17:15 35.05959 -89.97565 304 ft 13 kts 104°
2026-05-04 17:15 35.05793 -89.97483 309 ft 16 kts 182°
2026-05-04 17:16 35.05591 -89.97487 320 ft 8 kts 178°
2026-05-04 17:16 35.05490 -89.97505 327 ft 0 kts 223°
2026-05-04 17:18 35.05487 -89.97508 327 ft 2 kts 226°
2026-05-04 17:19 35.05393 -89.97616 326 ft 13 kts 186°
2026-05-04 17:19 35.05371 -89.97616 327 ft 1 kts 177°
2026-05-04 17:20 35.04473 -89.97599 319 ft 131 kts 179°
2026-05-04 17:20 35.02181 -89.97558 1159 ft 176 kts 187°
2026-05-04 17:20 35.00958 -89.97660 1983 ft 177 kts 185°
2026-05-04 17:21 34.98388 -89.97543 3412 ft 189 kts 184°
2026-05-04 17:21 34.95755 -89.97458 4668 ft 206 kts 184°
2026-05-04 17:22 34.94228 -89.97439 4975 ft 231 kts 183°
2026-05-04 17:22 34.92558 -89.97417 5551 ft 247 kts 182°
2026-05-04 17:23 34.87190 -89.97469 7971 ft 265 kts 185°
2026-05-04 17:23 34.85329 -89.97582 8760 ft 269 kts 186°
2026-05-04 17:23 34.81508 -89.97907 10117 ft 285 kts 188°
2026-05-04 17:24 34.79470 -89.98111 10468 ft 303 kts 188°
2026-05-04 17:24 34.72774 -89.98901 12259 ft 332 kts 192°
2026-05-04 17:25 34.70505 -89.99493 13053 ft 336 kts 196°
2026-05-04 17:25 34.65959 -90.01065 14609 ft 343 kts 199°
2026-05-04 17:26 34.61378 -90.02906 16021 ft 351 kts 201°
2026-05-04 17:26 34.54390 -90.05918 18239 ft 363 kts 202°
2026-05-04 17:27 34.49538 -90.07997 19898 ft 373 kts 200°
2026-05-04 17:27 34.44419 -90.09453 21456 ft 388 kts 195°
2026-05-04 17:28 34.38986 -90.10438 23032 ft 402 kts 193°
2026-05-04 17:29 34.30466 -90.11614 25143 ft 419 kts 192°
2026-05-04 17:29 34.21602 -90.12785 26995 ft 434 kts 192°
2026-05-04 17:30 34.12446 -90.14031 28376 ft 444 kts 199°
2026-05-04 17:31 34.07015 -90.17101 29171 ft 429 kts 219°
2026-05-04 17:31 33.99506 -90.23145 30392 ft 436 kts 221°
2026-05-04 17:32 33.94562 -90.27283 31241 ft 435 kts 223°
2026-05-04 17:33 33.87134 -90.33531 32448 ft 433 kts 225°
2026-05-04 17:33 33.84671 -90.35618 32808 ft 433 kts 225°
2026-05-04 17:34 33.78116 -90.41175 33584 ft 434 kts 226°
2026-05-04 17:34 33.75650 -90.43270 33849 ft 434 kts 227°
2026-05-04 17:35 33.68272 -90.49560 34549 ft 433 kts 227°
2026-05-04 17:35 33.63355 -90.53746 34918 ft 432 kts 228°
2026-05-04 17:35 33.60907 -90.55833 35112 ft 432 kts 228°
2026-05-04 17:36 33.58460 -90.57920 35293 ft 431 kts 228°
2026-05-04 17:36 33.56018 -90.60003 35460 ft 431 kts 228°
2026-05-04 17:36 33.53608 -90.62057 35614 ft 431 kts 228°
2026-05-04 17:36 33.51168 -90.64136 35766 ft 430 kts 228°
2026-05-04 17:37 33.48751 -90.66183 35928 ft 420 kts 229°
2026-05-04 17:37 33.44020 -90.70182 36034 ft 416 kts 229°
2026-05-04 17:38 33.39277 -90.74221 36052 ft 420 kts 229°
2026-05-04 17:38 33.34492 -90.78292 36051 ft 424 kts 229°
2026-05-04 17:39 33.27321 -90.84354 36059 ft 420 kts 229°
2026-05-04 17:39 33.22529 -90.88412 36060 ft 424 kts 229°
2026-05-04 17:40 33.17679 -90.92517 36064 ft 430 kts 229°
2026-05-04 17:40 33.12772 -90.96660 36044 ft 435 kts 229°
2026-05-04 17:41 33.07770 -91.00884 35603 ft 452 kts 228°
2026-05-04 17:41 33.05213 -91.03060 35018 ft 462 kts 228°
2026-05-04 17:41 33.02581 -91.05286 34588 ft 464 kts 227°
2026-05-04 17:42 32.99916 -91.07520 34301 ft 460 kts 227°
2026-05-04 17:42 32.97338 -91.09668 34166 ft 457 kts 227°
2026-05-04 17:42 32.92099 -91.14040 34074 ft 463 kts 227°
2026-05-04 17:43 32.86783 -91.18469 34002 ft 467 kts 228°
2026-05-04 17:43 32.81462 -91.22887 34012 ft 466 kts 228°
2026-05-04 17:44 32.76145 -91.27306 34018 ft 467 kts 228°
2026-05-04 17:44 32.70823 -91.31730 34009 ft 467 kts 228°
2026-05-04 17:45 32.65505 -91.36144 34027 ft 466 kts 228°
2026-05-04 17:45 32.60192 -91.40549 34003 ft 466 kts 228°
2026-05-04 17:46 32.54869 -91.44957 34042 ft 468 kts 228°
2026-05-04 17:46 32.49533 -91.49374 34064 ft 467 kts 228°
2026-05-04 17:47 32.44239 -91.53742 34057 ft 466 kts 228°
2026-05-04 17:47 32.38925 -91.58120 34074 ft 465 kts 228°
2026-05-04 17:48 32.33609 -91.62501 34039 ft 466 kts 228°
2026-05-04 17:48 32.28288 -91.66880 34070 ft 466 kts 228°
2026-05-04 17:49 32.22969 -91.71247 34065 ft 465 kts 228°
2026-05-04 17:49 32.17655 -91.75606 34067 ft 465 kts 228°
2026-05-04 17:50 32.12336 -91.79964 34072 ft 466 kts 228°
2026-05-04 17:50 32.07008 -91.84324 34064 ft 466 kts 228°
2026-05-04 17:51 32.01688 -91.88667 34057 ft 464 kts 228°
2026-05-04 17:51 31.96376 -91.93000 34053 ft 465 kts 228°
2026-05-04 17:52 31.91063 -91.97329 34063 ft 464 kts 228°
2026-05-04 17:52 31.85793 -92.01613 34063 ft 463 kts 228°
2026-05-04 17:53 31.80487 -92.05923 34062 ft 464 kts 228°
2026-05-04 17:53 31.75170 -92.10239 34050 ft 465 kts 228°
2026-05-04 17:54 31.69832 -92.14570 34056 ft 467 kts 227°
2026-05-04 17:54 31.64482 -92.18893 34056 ft 466 kts 227°
2026-05-04 17:55 31.59151 -92.23192 34076 ft 465 kts 227°
2026-05-04 17:55 31.53808 -92.27500 34084 ft 467 kts 227°
2026-05-04 17:56 31.48462 -92.31810 34064 ft 466 kts 227°
2026-05-04 17:56 31.43121 -92.36108 34085 ft 465 kts 227°
2026-05-04 17:57 31.37809 -92.40375 34062 ft 467 kts 227°
2026-05-04 17:57 31.32451 -92.44668 34064 ft 466 kts 227°
2026-05-04 17:58 31.27304 -92.49129 34043 ft 442 kts 240°
2026-05-04 17:58 31.23627 -92.54729 34062 ft 433 kts 247°
2026-05-04 17:59 31.20251 -92.60528 34039 ft 429 kts 248°
2026-05-04 18:00 31.15326 -92.69279 34069 ft 431 kts 248°
2026-05-04 18:00 31.12067 -92.75124 34089 ft 428 kts 248°
2026-05-04 18:01 31.08829 -92.80941 34099 ft 428 kts 248°
2026-05-04 18:01 31.05588 -92.86784 34089 ft 430 kts 248°
2026-05-04 18:02 31.02501 -92.92691 34057 ft 413 kts 258°
2026-05-04 18:02 31.01415 -92.95792 34065 ft 415 kts 256°
2026-05-04 18:02 30.98927 -93.01924 34066 ft 421 kts 254°
2026-05-04 18:03 30.96352 -93.08005 34049 ft 420 kts 254°
2026-05-04 18:03 30.93758 -93.14115 33757 ft 420 kts 254°
2026-05-04 18:04 30.91214 -93.20078 33424 ft 404 kts 254°
2026-05-04 18:04 30.88723 -93.25963 31793 ft 407 kts 254°
2026-05-04 18:05 30.87473 -93.28935 30877 ft 410 kts 254°
2026-05-04 18:05 30.86218 -93.31923 29972 ft 412 kts 254°
2026-05-04 18:05 30.84958 -93.34932 28921 ft 415 kts 254°
2026-05-04 18:05 30.83697 -93.37970 27808 ft 420 kts 253°
2026-05-04 18:06 30.81133 -93.44173 25606 ft 432 kts 251°
2026-05-04 18:06 30.79822 -93.47333 24733 ft 433 kts 250°
2026-05-04 18:06 30.78509 -93.50473 24066 ft 430 kts 250°
2026-05-04 18:07 30.77199 -93.53589 23340 ft 427 kts 249°
2026-05-04 18:07 30.75894 -93.56681 22574 ft 424 kts 249°
2026-05-04 18:07 30.74597 -93.59740 21844 ft 420 kts 249°
2026-05-04 18:07 30.73300 -93.62801 21334 ft 424 kts 248°
2026-05-04 18:08 30.71995 -93.65879 21086 ft 423 kts 248°
2026-05-04 18:08 30.70712 -93.68888 20837 ft 408 kts 248°
2026-05-04 18:08 30.69469 -93.71791 20589 ft 395 kts 248°
2026-05-04 18:08 30.68267 -93.74595 20345 ft 381 kts 248°
2026-05-04 18:09 30.65953 -93.80018 19880 ft 388 kts 248°
2026-05-04 18:09 30.63548 -93.85691 19400 ft 389 kts 248°
2026-05-04 18:10 30.62358 -93.88484 19169 ft 383 kts 248°
2026-05-04 18:10 30.61178 -93.91251 18936 ft 381 kts 248°
2026-05-04 18:10 30.60000 -93.94014 18709 ft 381 kts 248°
2026-05-04 18:10 30.58825 -93.96774 18486 ft 381 kts 248°
2026-05-04 18:11 30.57651 -93.99528 18249 ft 380 kts 248°
2026-05-04 18:11 30.56478 -94.02275 17986 ft 379 kts 248°
2026-05-04 18:11 30.55310 -94.05005 17726 ft 377 kts 248°
2026-05-04 18:11 30.54146 -94.07722 17475 ft 375 kts 248°
2026-05-04 18:12 30.52984 -94.10432 17219 ft 374 kts 248°
2026-05-04 18:12 30.51830 -94.13123 17082 ft 371 kts 248°
2026-05-04 18:12 30.50683 -94.15797 17026 ft 370 kts 248°
2026-05-04 18:12 30.49536 -94.18471 17003 ft 370 kts 248°
2026-05-04 18:13 30.48385 -94.21154 16988 ft 372 kts 248°
2026-05-04 18:13 30.47242 -94.23813 16989 ft 375 kts 248°
2026-05-04 18:13 30.44966 -94.29089 16981 ft 347 kts 248°
2026-05-04 18:14 30.43911 -94.31515 16969 ft 327 kts 248°
2026-05-04 18:14 30.42913 -94.33815 16799 ft 312 kts 248°
2026-05-04 18:14 30.41961 -94.36020 16565 ft 300 kts 249°
2026-05-04 18:15 30.39770 -94.40100 15497 ft 304 kts 233°
2026-05-04 18:15 30.36735 -94.43504 14495 ft 303 kts 228°
2026-05-04 18:15 30.35156 -94.45109 14017 ft 301 kts 227°
2026-05-04 18:16 30.33565 -94.46679 13507 ft 301 kts 226°
2026-05-04 18:16 30.31947 -94.48255 13202 ft 305 kts 226°
2026-05-04 18:16 30.30320 -94.49815 13072 ft 301 kts 225°
2026-05-04 18:17 30.27155 -94.52816 13010 ft 295 kts 225°
2026-05-04 18:17 30.25555 -94.54333 13006 ft 299 kts 225°
2026-05-04 18:17 30.22310 -94.57401 12903 ft 300 kts 225°
2026-05-04 18:18 30.20681 -94.58906 12766 ft 298 kts 224°
2026-05-04 18:18 30.19057 -94.60388 12434 ft 297 kts 224°
2026-05-04 18:18 30.17433 -94.61859 11932 ft 295 kts 223°
2026-05-04 18:18 30.15817 -94.63315 11446 ft 294 kts 223°
2026-05-04 18:19 30.12620 -94.66174 10495 ft 290 kts 221°
2026-05-04 18:19 30.11021 -94.67599 10037 ft 289 kts 221°
2026-05-04 18:19 30.09431 -94.69015 9541 ft 288 kts 221°
2026-05-04 18:20 30.07852 -94.70415 9101 ft 284 kts 221°
2026-05-04 18:20 30.06343 -94.71859 8647 ft 280 kts 226°
2026-05-04 18:20 30.04962 -94.73454 8294 ft 281 kts 230°
2026-05-04 18:20 30.03701 -94.75096 8143 ft 265 kts 232°
2026-05-04 18:21 30.02608 -94.76660 8041 ft 235 kts 235°
2026-05-04 18:21 30.01681 -94.78129 8025 ft 221 kts 238°
2026-05-04 18:21 30.00842 -94.79625 8017 ft 224 kts 242°
2026-05-04 18:21 30.00161 -94.81262 8016 ft 228 kts 251°
2026-05-04 18:22 29.99710 -94.82984 8007 ft 223 kts 258°
2026-05-04 18:22 29.99443 -94.84750 8005 ft 223 kts 264°
2026-05-04 18:22 29.99305 -94.86512 8004 ft 219 kts 267°
2026-05-04 18:22 29.99266 -94.87677 8002 ft 220 kts 269°
2026-05-04 18:23 29.99255 -94.89464 8000 ft 224 kts 270°
2026-05-04 18:23 29.99271 -94.91849 7999 ft 225 kts 271°
2026-05-04 18:23 29.99290 -94.93634 8000 ft 220 kts 271°
2026-05-04 18:23 29.99302 -94.94812 7918 ft 223 kts 271°
2026-05-04 18:24 29.99323 -94.96638 7625 ft 229 kts 270°
2026-05-04 18:24 29.99339 -94.98466 7428 ft 225 kts 270°
2026-05-04 18:24 29.99359 -95.00346 6611 ft 242 kts 269°
2026-05-04 18:24 29.99366 -95.02292 6118 ft 235 kts 268°
2026-05-04 18:25 29.99374 -95.04098 5923 ft 220 kts 268°
2026-05-04 18:25 29.99369 -95.05852 5474 ft 216 kts 267°
2026-05-04 18:25 29.99374 -95.07561 5079 ft 210 kts 266°
2026-05-04 18:25 29.99371 -95.09225 4684 ft 205 kts 265°
2026-05-04 18:26 29.99366 -95.10847 4276 ft 200 kts 265°
2026-05-04 18:26 29.99361 -95.12430 3867 ft 195 kts 265°
2026-05-04 18:26 29.99357 -95.13984 3460 ft 191 kts 265°
2026-05-04 18:26 29.99348 -95.15505 3061 ft 188 kts 265°
2026-05-04 18:27 29.99346 -95.16991 2715 ft 181 kts 265°
2026-05-04 18:27 29.99343 -95.18389 2508 ft 169 kts 265°
2026-05-04 18:27 29.99344 -95.19712 2281 ft 161 kts 264°
2026-05-04 18:27 29.99342 -95.21010 2063 ft 164 kts 265°
2026-05-04 18:28 29.99343 -95.22344 1880 ft 169 kts 265°
2026-05-04 18:28 29.99350 -95.23710 1666 ft 170 kts 264°
2026-05-04 18:28 29.99348 -95.25037 1382 ft 160 kts 264°
2026-05-04 18:28 29.99347 -95.26313 1147 ft 159 kts 264°
2026-05-04 18:29 29.99331 -95.27592 917 ft 162 kts 264°
2026-05-04 18:29 29.99326 -95.28936 742 ft 168 kts 267°
2026-05-04 18:29 29.99331 -95.30261 571 ft 167 kts 267°
2026-05-04 18:29 29.99361 -95.31563 294 ft 151 kts 265°
2026-05-04 18:30 29.99343 -95.33827 99 ft 121 kts 270°
2026-05-04 18:30 29.99344 -95.34670 98 ft 77 kts 271°
2026-05-04 18:30 29.99343 -95.35124 98 ft 46 kts 270°
2026-05-04 18:31 29.99274 -95.35285 97 ft 20 kts 173°
2026-05-04 18:31 29.99210 -95.35275 98 ft 0 kts 178°
2026-05-04 18:31 29.99202 -95.35275 96 ft 2 kts 181°
2026-05-04 18:31 29.99166 -95.35278 97 ft 9 kts 181°
2026-05-04 18:32 29.99078 -95.35278 97 ft 16 kts 180°
2026-05-04 18:32 29.98948 -95.35278 99 ft 20 kts 179°
2026-05-04 18:32 29.98803 -95.35276 99 ft 22 kts 179°
2026-05-04 18:32 29.98649 -95.35279 100 ft 23 kts 179°
2026-05-04 18:33 29.98488 -95.35269 100 ft 23 kts 159°
2026-05-04 18:33 29.98346 -95.35178 101 ft 24 kts 151°
2026-05-04 18:33 29.98199 -95.35082 101 ft 25 kts 151°
2026-05-04 18:33 29.98043 -95.34987 101 ft 26 kts 152°
2026-05-04 18:34 29.97880 -95.34887 101 ft 27 kts 152°
2026-05-04 18:34 29.97744 -95.34803 100 ft 15 kts 151°
2026-05-04 18:34 29.97719 -95.34727 100 ft 12 kts 46°
2026-05-04 18:34 29.97764 -95.34646 100 ft 9 kts 73°
2026-05-04 18:35 29.97766 -95.34605 100 ft 3 kts 92°
2026-05-04 18:35 29.97761 -95.34572 100 ft 3 kts 132°
2026-05-04 18:35 29.97737 -95.34566 100 ft 5 kts 169°
2026-05-04 18:35 29.97689 -95.34556 100 ft 7 kts 173°
2026-05-04 18:36 29.97686 -95.34556 100 ft 0 kts 173°
2026-05-04 18:36 29.97687 -95.34556 100 ft 0 kts 173°